User: anonymous   Login
Location: Unspecified
(40.7945°N, 111.1337°W)
Time: 17:30:14
(UTC-06:00)
Language:

Okean 3 - Orbit

View from above orbital plane
View from above orbital plane
View from above satellite
View from above satellite

Ground track
Ground track

The orbit data is extracted from the following two-line orbital elements,

1 21397U 91039A   19146.49520944  .00000171  00000-0  13939-4 0  9990
2 21397  82.5218 185.4262 0018683  32.6302 327.6068 14.92803694515447
Epoch (UTC): 26 May 2019 11:53:06
Eccentricity: 0.0018683
inclination: 82.5218°
perigee height: 576 km
apogee height: 602 km
right ascension of ascending node: 185.4262°
argument of perigee: 32.6302°
revolutions per day: 14.92803694
mean anomaly at epoch: 327.6068°
orbit number at epoch: 51544

The dashed part of the orbit path shows where the satellite is in the earth's shadow,  

DLR